Terminal Aerodrome Forecast
Issued by NWS Boston, MA

Home | Current Version | Previous Version | Text Only | Print | Product List | Glossary On
Versions: 1 2 3 4 5 6 7 8 9 10 11 12 13 14 15 16 17 18 19 20 21 22 23 24 25 26 27 28 29 30 31 32 33 34 35 36 37 38 39 40 41 42 43 44 45
000
FTUS41 KBOX 291515 AAA
TAFBDL
TAF AMD
KBDL 291515Z 2915/3018 VRB03KT P6SM BKN250
     FM292200 16005KT P6SM BKN110
     FM300300 16004KT P6SM OVC015
     FM300400 16004KT 3SM -SN OVC010
     FM300700 18004KT 2SM -SN OVC010
     FM301300 26004KT 1SM -SN OVC008
     FM301500 27004KT P6SM OVC015=

USA.gov is the U.S. government's official web portal to all federal, state and local government web resources and services.